When you browse on this site, cookies collect data to enhance your experience and personalize the content and advertising you see.
Visit our Privacy Policy to learn more. By continuing to use the site, you agree to this use of cookies and data.
  • en France
  • Liste des pays
  • À 7 jours
  • Température de l'eau
  • Carte satellitaire
  • Carte météo
  • Widgets météo
  • user-avatar
    Se connecter

    Météo par heure à Qala i Naw

    Ce jour, 19 Janvier, Samedi

    Heure Température Précipitation Vent Pression Humidité
    00:00 +9°C° 0 mm 1 m/s 678 mmHg 41%
    01:00 +8°C° 0 mm 1 m/s 679 mmHg 41%
    02:00 +8°C° 0 mm 1 m/s 678 mmHg 41%
    03:00 +8°C° 0 mm 1 m/s 678 mmHg 40%
    04:00 +7°C° 0 mm 1 m/s 678 mmHg 43%
    05:00 +6°C° 0 mm 1 m/s 678 mmHg 47%
    06:00 +6°C° 0 mm 1 m/s 678 mmHg 51%
    07:00 +5°C° 0 mm 1 m/s 678 mmHg 56%
    08:00 +6°C° 0 mm 1 m/s 678 mmHg 55%
    09:00 +6°C° 0 mm 2 m/s 678 mmHg 54%
    10:00 +7°C° 0 mm 2 m/s 677 mmHg 53%
    11:00 +7°C° 0 mm 3 m/s 677 mmHg 52%
    12:00 +8°C° 0 mm 3 m/s 677 mmHg 50%
    13:00 +8°C° 0 mm 4 m/s 676 mmHg 49%
    14:00 +8°C° 0.1 mm 4 m/s 676 mmHg 53%
    15:00 +7°C° 0.1 mm 4 m/s 676 mmHg 57%
    16:00 +8°C° 0.1 mm 3 m/s 676 mmHg 60%
    17:00 +7°C° 0.2 mm 3 m/s 676 mmHg 64%
    18:00 +5°C° 0.2 mm 3 m/s 677 mmHg 68%
    19:00 +6°C° 0.2 mm 2 m/s 677 mmHg 71%
    20:00 +5°C° 0.1 mm 2 m/s 677 mmHg 74%
    21:00 +4°C° 0.1 mm 2 m/s 677 mmHg 78%
    22:00 +4°C° 0.1 mm 2 m/s 677 mmHg 81%
    23:00 +2°C° 0.7 mm 3 m/s 677 mmHg 84%

    Demain, 20 Janvier, Dimanche

    Heure Température Précipitation Vent Pression Humidité
    00:00 +2°C° 0.7 mm 3 m/s 677 mmHg 88%
    01:00 +1°C° 0.7 mm 3 m/s 677 mmHg 92%
    02:00 +1°C° 1.7 mm 3 m/s 677 mmHg 94%
    03:00 0°C° 1.7 mm 3 m/s 677 mmHg 96%
    04:00 +1°C° 1.7 mm 2 m/s 677 mmHg 98%
    05:00 +1°C° 0.7 mm 2 m/s 678 mmHg 98%
    06:00 +1°C° 0.7 mm 2 m/s 679 mmHg 98%
    07:00 -1°C° 0.7 mm 2 m/s 679 mmHg 98%
    08:00 -1°C° 0.6 mm 2 m/s 680 mmHg 98%
    09:00 -1°C° 0.6 mm 3 m/s 681 mmHg 99%
    10:00 -1°C° 0.6 mm 3 m/s 681 mmHg 99%
    11:00 -1°C° 0.6 mm 3 m/s 681 mmHg 99%
    12:00 -1°C° 0.6 mm 2 m/s 681 mmHg 99%
    13:00 -1°C° 0.6 mm 2 m/s 681 mmHg 98%
    14:00 -1°C° 0.1 mm 2 m/s 681 mmHg 97%
    15:00 +1°C° 0.1 mm 1 m/s 682 mmHg 95%
    16:00 +1°C° 0.1 mm 1 m/s 682 mmHg 93%
    17:00 +1°C° 0 mm 1 m/s 683 mmHg 92%
    18:00 0°C° 0 mm 1 m/s 683 mmHg 92%
    19:00 0°C° 0 mm 1 m/s 684 mmHg 91%
    20:00 -1°C° 0 mm 1 m/s 684 mmHg 89%
    21:00 -1°C° 0 mm 1 m/s 684 mmHg 87%
    22:00 -1°C° 0 mm 1 m/s 684 mmHg 85%
    23:00 -1°C° 0 mm 1 m/s 684 mmHg 84%

    Après-demain, 21 Janvier, Lundi

    Heure Température Précipitation Vent Pression Humidité
    00:00 -1°C° 0 mm 1 m/s 684 mmHg 82%
    01:00 -2°C° 0 mm 1 m/s 684 mmHg 81%
    02:00 -2°C° 0 mm 1 m/s 684 mmHg 80%
    03:00 -2°C° 0 mm 1 m/s 684 mmHg 80%
    04:00 -2°C° 0 mm 1 m/s 684 mmHg 80%
    05:00 -2°C° 0 mm 1 m/s 685 mmHg 79%
    06:00 -2°C° 0 mm 1 m/s 685 mmHg 79%
    07:00 -2°C° 0 mm 1 m/s 685 mmHg 78%
    08:00 -1°C° 0 mm 1 m/s 685 mmHg 75%
    09:00 -1°C° 0 mm 0 m/s 685 mmHg 72%
    10:00 0°C° 0 mm 0 m/s 685 mmHg 69%
    11:00 +1°C° 0 mm 1 m/s 684 mmHg 71%
    12:00 +2°C° 0 mm 1 m/s 684 mmHg 72%
    13:00 +2°C° 0 mm 1 m/s 683 mmHg 73%
    14:00 +2°C° 0 mm 1 m/s 683 mmHg 75%
    15:00 +2°C° 0 mm 1 m/s 682 mmHg 76%
    16:00 +2°C° 0 mm 1 m/s 682 mmHg 78%
    17:00 +1°C° 0 mm 1 m/s 683 mmHg 79%
    18:00 +1°C° 0 mm 1 m/s 683 mmHg 80%
    19:00 0°C° 0 mm 1 m/s 683 mmHg 80%
    20:00 0°C° 0 mm 1 m/s 683 mmHg 77%
    21:00 0°C° 0 mm 1 m/s 683 mmHg 74%
    22:00 0°C° 0 mm 1 m/s 683 mmHg 71%
    23:00 0°C° 0 mm 1 m/s 682 mmHg 69%

    22 Janvier, Mardi

    Heure Température Précipitation Vent Pression Humidité
    00:00 0°C° 0 mm 1 m/s 682 mmHg 67%
    01:00 0°C° 0 mm 1 m/s 682 mmHg 65%
    02:00 0°C° 0 mm 1 m/s 681 mmHg 64%
    03:00 0°C° 0 mm 1 m/s 681 mmHg 64%
    04:00 0°C° 0 mm 1 m/s 681 mmHg 63%
    05:00 0°C° 0 mm 1 m/s 681 mmHg 62%
    06:00 0°C° 0 mm 1 m/s 681 mmHg 61%
    07:00 0°C° 0 mm 1 m/s 681 mmHg 60%
    08:00 +2°C° 0 mm 1 m/s 681 mmHg 58%
    09:00 +3°C° 0 mm 1 m/s 681 mmHg 56%
    10:00 +4°C° 0 mm 1 m/s 681 mmHg 54%
    11:00 +5°C° 0 mm 1 m/s 681 mmHg 53%
    12:00 +6°C° 0 mm 1 m/s 680 mmHg 51%
    13:00 +7°C° 0 mm 1 m/s 679 mmHg 50%
    14:00 +6°C° 0 mm 1 m/s 679 mmHg 53%
    15:00 +6°C° 0 mm 1 m/s 679 mmHg 56%
    16:00 +6°C° 0 mm 1 m/s 679 mmHg 60%
    17:00 +5°C° 0 mm 1 m/s 679 mmHg 59%
    18:00 +4°C° 0 mm 1 m/s 679 mmHg 59%
    19:00 +3°C° 0 mm 1 m/s 680 mmHg 58%
    20:00 +3°C° 0 mm 1 m/s 680 mmHg 57%
    21:00 +2°C° 0 mm 2 m/s 680 mmHg 56%
    22:00 +2°C° 0 mm 2 m/s 680 mmHg 54%
    23:00 +2°C° 0 mm 2 m/s 680 mmHg 55%

    23 Janvier, Mercredi

    Heure Température Précipitation Vent Pression Humidité
    00:00 +2°C° 0 mm 2 m/s 680 mmHg 55%
    01:00 +2°C° 0 mm 2 m/s 680 mmHg 56%
    02:00 +2°C° 0 mm 2 m/s 680 mmHg 56%
    03:00 +3°C° 0 mm 2 m/s 681 mmHg 56%
    04:00 +3°C° 0 mm 2 m/s 681 mmHg 57%
    05:00 +3°C° 0 mm 2 m/s 681 mmHg 59%
    06:00 +3°C° 0 mm 2 m/s 681 mmHg 60%
    07:00 +3°C° 0 mm 2 m/s 682 mmHg 62%
    08:00 +4°C° 0.1 mm 2 m/s 682 mmHg 61%
    09:00 +4°C° 0.1 mm 2 m/s 683 mmHg 60%
    10:00 +5°C° 0.1 mm 2 m/s 683 mmHg 59%
    11:00 +6°C° 0 mm 2 m/s 683 mmHg 57%
    12:00 +6°C° 0 mm 2 m/s 682 mmHg 56%
    13:00 +7°C° 0 mm 2 m/s 682 mmHg 55%
    14:00 +8°C° 0 mm 1 m/s 682 mmHg 55%
    15:00 +8°C° 0 mm 1 m/s 682 mmHg 55%
    16:00 +8°C° 0 mm 1 m/s 682 mmHg 56%
    17:00 +6°C° 0 mm 2 m/s 682 mmHg 59%
    18:00 +5°C° 0 mm 2 m/s 682 mmHg 61%
    19:00 +3°C° 0 mm 3 m/s 683 mmHg 64%
    20:00 +3°C° 0 mm 3 m/s 683 mmHg 63%
    21:00 +3°C° 0 mm 3 m/s 683 mmHg 63%
    22:00 +2°C° 0 mm 3 m/s 683 mmHg 62%
    23:00 +2°C° 0 mm 3 m/s 683 mmHg 61%

    24 Janvier, Jeudi

    Heure Température Précipitation Vent Pression Humidité
    00:00 +3°C° 0 mm 2 m/s 683 mmHg 61%
    01:00 +3°C° 0 mm 2 m/s 683 mmHg 60%
    02:00 +3°C° 0 mm 2 m/s 683 mmHg 60%
    03:00 +2°C° 0 mm 2 m/s 683 mmHg 59%
    04:00 +2°C° 0 mm 2 m/s 683 mmHg 59%
    05:00 +2°C° 0 mm 2 m/s 683 mmHg 58%
    06:00 +2°C° 0 mm 2 m/s 684 mmHg 58%
    07:00 +1°C° 0 mm 3 m/s 684 mmHg 57%
    08:00 +4°C° 0 mm 2 m/s 684 mmHg 54%
    09:00 +5°C° 0 mm 2 m/s 685 mmHg 51%
    10:00 +7°C° 0 mm 2 m/s 685 mmHg 48%
    11:00 +7°C° 0 mm 2 m/s 684 mmHg 46%
    12:00 +8°C° 0 mm 2 m/s 684 mmHg 45%
    13:00 +10°C° 0 mm 1 m/s 683 mmHg 43%
    14:00 +10°C° 0 mm 1 m/s 683 mmHg 42%
    15:00 +9°C° 0 mm 2 m/s 683 mmHg 41%
    16:00 +9°C° 0 mm 2 m/s 683 mmHg 40%
    17:00 +7°C° 0 mm 2 m/s 683 mmHg 43%
    18:00 +6°C° 0 mm 2 m/s 683 mmHg 46%
    19:00 +4°C° 0 mm 3 m/s 684 mmHg 49%
    20:00 +4°C° 0 mm 3 m/s 684 mmHg 49%
    21:00 +4°C° 0 mm 3 m/s 684 mmHg 49%
    22:00 +3°C° 0 mm 3 m/s 684 mmHg 49%
    23:00 +3°C° 0 mm 3 m/s 684 mmHg 50%
    Voir plus